Terug naar catalogus

LEASAT 3 PKM

ActiefHEO
NORAD 16229·ROCKET BODY·🇺🇸 United States

Gelanceerd Apr 12, 1985 vanaf Cape Canaveral Space Force Station

Loading…

Volgende Passages (komende 24 uur)

TLE

VersSource: Space-Track

Epoch: Sep 14, 2026, 20:32 UTC

1 16229U 85028E   26257.85590091  .00012594  00000-0  17154-2 0  9993
2 16229  26.9632  96.4945 4718258  89.9566 322.0983  6.10641343715441

Volg LEASAT 3 PKM in realtime met AllMySat

Download on the App Store